EW3411 Weather Reports


time (UTC)temp
C
wind
direction
speed
KPH
gust
KPH
rain 1hr
cm
rain 24hr
cm
rain mn
cm
humidity
%
barometer
mb
20260507134541 7 308 11.3 25.7 0.00 3.35 0.61 86 1004.7
20260507134014 7 351 14.5 25.7 0.00 3.35 0.61 85 1004.8
20260507133514 7 317 16.1 22.5 0.00 3.35 0.61 85 1004.8
20260507133038 7 268 14.5 22.5 0.00 3.35 0.61 86 1004.9
20260507132514 7 339 11.3 19.3 0.00 3.35 0.61 87 1004.8
20260507132013 7 307 14.5 19.3 0.00 3.35 0.61 87 1004.6
20260507131540 7 312 12.9 25.7 0.00 3.35 0.61 88 1005.0
20260507131015 7 346 16.1 24.1 0.00 3.35 0.61 87 1005.1
20260507130517 7 318 14.5 24.1 0.00 3.35 0.61 87 1005.3
20260507130046 7 295 9.7 24.1 0.00 3.35 0.61 87 1005.4
20260507125519 7 330 12.9 24.1 0.00 3.35 0.61 88 1005.4
20260507125013 7 320 11.3 22.5 0.00 3.35 0.61 88 1005.4
20260507124546 7 307 12.9 22.5 0.00 3.35 0.61 87 1005.4
20260507124015 7 334 11.3 22.5 0.00 3.35 0.61 88 1005.3
20260507123514 7 322 14.5 22.5 0.00 3.35 0.61 87 1005.4
20260507123052 7 338 9.7 22.5 0.00 3.35 0.61 90 1005.4
20260507122514 6 327 11.3 20.9 0.00 3.35 0.61 88 1005.2
20260507122013 6 324 11.3 24.1 0.00 3.35 0.61 89 1005.2
20260507121543 6 322 12.9 22.5 0.00 3.35 0.61 89 1005.4
20260507121016 6 295 9.7 20.9 0.00 3.35 0.61 89 1005.4
20260507120513 6 324 14.5 20.9 0.00 3.35 0.61 89 1005.2
20260507120032 6 340 9.7 16.1 0.00 3.35 0.61 89 1005.3
20260507115509 6 335 6.4 17.7 0.00 3.35 0.61 91 1005.4
20260507115010 6 335 8.0 20.9 0.00 3.35 0.61 91 1005.4
20260507114533 6 332 11.3 20.9 0.00 3.35 0.61 90 1005.3
20260507114013 6 337 9.7 19.3 0.00 3.35 0.61 90 1005.4
20260507113514 6 301 9.7 19.3 0.00 3.35 0.61 90 1005.3
20260507113030 6 282 9.7 20.9 0.00 3.35 0.61 90 1005.3
20260507112514 6 312 9.7 20.9 0.00 3.35 0.61 90 1005.2
20260507112015 6 312 8.0 17.7 0.00 3.35 0.61 90 1005.1
20260507111523 6 305 9.7 17.7 0.00 3.35 0.61 90 1005.0
20260507111011 6 333 8.0 14.5 0.00 3.35 0.61 91 1005.0
20260507110517 6 295 6.4 16.1 0.00 3.35 0.61 91 1005.0
20260507110032 6 321 9.7 16.1 0.00 3.35 0.61 90 1004.9
20260507105512 6 312 6.4 14.5 0.00 3.35 0.61 91 1005.0
20260507105013 6 341 6.4 17.7 0.00 3.35 0.61 91 1005.0
20260507104536 5 320 6.4 17.7 0.00 3.35 0.61 91 1005.1
20260507104016 5 320 9.7 20.9 0.00 3.35 0.61 92 1005.0
20260507103511 5 318 11.3 20.9 0.00 3.35 0.61 91 1005.0
20260507103031 5 338 9.7 17.7 0.00 3.35 0.61 91 1005.0
20260507102517 5 290 9.7 16.1 0.00 3.35 0.61 91 1005.1
20260507102013 5 303 8.0 16.1 0.00 3.35 0.61 91 1005.2
20260507101539 5 309 6.4 16.1 0.00 3.35 0.61 91 1005.1
20260507101012 5 290 11.3 17.7 0.00 3.35 0.61 91 1005.0
20260507100513 6 282 9.7 17.7 0.00 3.35 0.61 90 1004.9
20260507100034 6 302 6.4 17.7 0.00 3.35 0.61 92 1004.8
20260507095514 6 328 6.4 16.1 0.00 3.38 0.61 92 1004.7
20260507095006 6 316 8.0 16.1 0.00 3.38 0.61 92 1004.5
20260507094533 6 335 8.0 14.5 0.00 3.38 0.61 93 1004.3
20260507094015 5 318 8.0 14.5 0.00 3.38 0.61 94 1004.0
20260507093513 6 305 4.8 9.7 0.00 3.38 0.61 93 1004.1
20260507093039 6 327 6.4 16.1 0.00 3.38 0.61 93 1003.9
20260507092511 6 311 11.3 16.1 0.00 3.38 0.61 93 1004.2
20260507092011 6 308 8.0 14.5 0.00 3.38 0.61 92 1004.1
20260507091519 6 331 3.2 9.7 0.00 3.38 0.61 92 1004.4
20260507091010 6 295 3.2 11.3 0.00 3.38 0.61 92 1004.5
20260507090508 6 299 6.4 16.1 0.00 3.38 0.61 91 1004.5
20260507090034 6 314 8.0 16.1 0.00 3.38 0.61 92 1004.5
20260507085509 6 303 0.0 6.4 0.00 3.38 0.61 93 1004.4
20260507085014 6 295 1.6 6.4 0.00 3.38 0.61 92 1004.4
20260507084532 6 324 0.0 4.8 0.00 3.38 0.61 92 1004.1
20260507084017 6 324 0.0 8.0 0.00 3.38 0.61 91 1004.3
20260507083511 6 324 3.2 16.1 0.00 3.38 0.61 91 1004.3
20260507083038 6 327 6.4 20.9 0.00 3.38 0.61 89 1004.4
20260507082511 6 301 11.3 20.9 0.00 3.38 0.61 90 1004.5
20260507082013 6 290 11.3 19.3 0.00 3.38 0.61 90 1004.4
20260507081534 6 331 12.9 24.1 0.00 3.38 0.61 94 1004.0
20260507081011 6 352 17.7 24.1 0.00 3.38 0.61 94 1003.9
20260507080515 6 336 16.1 24.1 0.00 3.38 0.61 92 1003.9
20260507080035 6 303 9.7 19.3 0.00 3.38 0.61 92 1003.8
20260507075511 6 303 11.3 17.7 0.00 3.43 0.61 91 1003.9
20260507075016 6 299 8.0 20.9 0.05 3.43 0.61 91 1003.8
20260507074530 6 239 8.0 20.9 0.05 3.43 0.61 91 1003.9
20260507074012 6 259 6.4 14.5 0.05 3.43 0.61 92 1003.9
20260507073515 6 282 6.4 16.1 0.05 3.43 0.61 92 1003.9
20260507073035 6 328 6.4 22.5 0.05 3.43 0.61 92 1003.9
20260507072511 6 309 16.1 22.5 0.05 3.43 0.61 92 1004.2
20260507072012 7 318 12.9 22.5 0.05 3.43 0.61 92 1003.7
20260507071553 7 312 11.3 19.3 0.08 3.43 0.61 93 1003.9
20260507071020 7 328 11.3 19.3 0.08 3.43 0.61 93 1003.8
20260507070510 7 305 12.9 19.3 0.08 3.43 0.61 94 1003.8
20260507070022 7 322 11.3 19.3 0.08 3.43 0.61 94 1003.9
20260507065517 7 295 9.7 17.7 0.10 3.43 0.61 94 1003.9
20260507065011 7 306 8.0 16.1 0.05 3.38 0.56 94 1003.9
20260507064534 7 295 8.0 14.5 0.05 3.38 0.56 94 1003.9
20260507064014 7 251 6.4 12.9 0.08 3.38 0.56 94 1003.7
20260507063513 7 309 6.4 14.5 0.10 3.38 0.56 94 1003.6
20260507063041 7 306 8.0 14.5 0.10 3.38 0.56 95 1003.5
20260507062511 7 318 6.4 12.9 0.18 3.38 0.56 95 1003.4
20260507062013 7 307 4.8 14.5 0.20 3.38 0.56 95 1003.5
20260507061537 7 234 6.4 14.5 0.18 3.35 0.53 95 1003.3
20260507061008 7 290 6.4 16.1 0.18 3.35 0.53 95 1003.3
20260507060514 7 303 9.7 16.1 0.20 3.35 0.53 95 1003.1
20260507060035 7 322 9.7 14.5 0.20 3.35 0.53 95 1002.7
20260507055513 7 342 6.4 11.3 0.20 3.33 0.48 95 1003.0
20260507055015 7 313 4.8 14.5 0.23 3.33 0.48 95 1003.4
20260507054546 7 295 8.0 14.5 0.23 3.33 0.48 95 1003.6
20260507054013 7 299 4.8 14.5 0.23 3.30 0.48 96 1003.5
20260507053515 7 321 4.8 9.7 0.20 3.28 0.46 96 1003.7
20260507053049 7 321 4.8 9.7 0.18 3.23 0.41 96 1003.8
20260507052513 7 314 1.6 12.9 0.15 3.20 0.36 96 1003.9
20260507052013 7 290 4.8 12.9 0.15 3.17 0.36 96 1003.8
20260507051549 7 315 3.2 8.0 0.18 3.17 0.36 97 1003.8
20260507051010 7 276 4.8 8.0 0.23 3.17 0.36 97 1003.4
20260507050518 7 304 4.8 9.7 0.28 3.15 0.33 96 1003.3
20260507050049 7 312 1.6 16.1 0.33 3.15 0.33 96 1003.3
20260507045510 7 331 9.7 17.7 0.36 3.12 0.30 96 1003.3
20260507045016 7 336 9.7 14.5 0.36 3.10 0.28 96 1003.5
20260507044545 7 305 9.7 14.5 0.43 3.10 0.28 96 1003.6
20260507044011 8 333 8.0 12.9 0.43 3.05 0.23 96 1003.5
20260507043512 8 337 8.0 12.9 0.46 3.05 0.23 97 1003.6
20260507043041 8 327 6.4 12.9 0.46 3.02 0.23 97 1003.6
20260507042511 8 332 4.8 14.5 0.46 3.02 0.23 97 1003.7
20260507042016 8 312 6.4 16.1 0.46 3.00 0.20 97 1003.7
20260507041541 8 325 9.7 24.1 0.43 2.97 0.18 97 1003.7
20260507041014 8 329 12.9 24.1 0.36 2.92 0.10 97 1003.8
20260507040516 8 336 9.7 17.7 0.33 2.87 0.05 97 1003.9
20260507040059 8 307 11.3 17.7 0.33 2.82 0.00 97 1004.1
20260507035513 8 305 6.4 14.5 0.30 2.72 2.72 97 1004.2
20260507035014 8 305 4.8 12.9 0.33 2.69 2.69 97 1003.8
20260507034554 8 332 6.4 16.1 0.30 2.64 2.64 96 1003.6
20260507034015 8 330 6.4 11.3 0.30 2.64 2.64 97 1003.4
20260507033510 8 326 4.8 12.9 0.30 2.62 2.62 97 1003.3
20260507033044 8 331 6.4 14.5 0.30 2.59 2.59 97 1003.2
20260507032513 8 333 8.0 14.5 0.30 2.59 2.59 97 1003.2
20260507032015 8 324 4.8 9.7 0.30 2.57 2.57 97 1003.2
20260507031539 8 330 6.4 9.7 0.33 2.57 2.57 98 1003.3
20260507031011 8 324 3.2 6.4 0.33 2.54 2.54 98 1003.2
20260507030514 8 342 1.6 6.4 0.33 2.54 2.54 97 1003.2
20260507030040 8 342 3.2 8.0 0.30 2.46 2.46 97 1003.3
20260507025515 8 343 4.8 8.0 0.28 2.46 2.44 97 1003.2
20260507025010 8 15 0.0 3.2 0.23 2.41 2.39 97 1003.3
20260507024545 8 15 0.0 3.2 0.23 2.39 2.36 97 1003.6
20260507024014 8 15 0.0 3.2 0.20 2.31 2.31 97 1003.8
20260507023514 8 342 0.0 3.2 0.20 2.31 2.31 97 1003.9
20260507023039 8 342 0.0 3.2 0.20 2.31 2.29 97 1004.0
20260507022515 8 342 0.0 6.4 0.18 2.29 2.26 97 1004.1
20260507022015 8 343 1.6 6.4 0.20 2.29 2.26 97 1004.3
20260507021538 8 341 3.2 11.3 0.18 2.26 2.24 97 1004.4
20260507021015 9 331 6.4 11.3 0.15 2.24 2.21 96 1004.3
20260507020517 9 272 3.2 8.0 0.10 2.21 2.16 97 1004.3
20260507020056 9 325 3.2 12.9 0.10 2.21 2.16 97 1004.3
20260507015516 9 328 4.8 11.3 0.10 2.16 2.16 97 1004.4
20260507015017 10 319 4.8 12.9 0.08 2.16 2.13 97 1004.3
20260507014557 10 322 4.8 12.9 0.05 2.13 2.11 97 1004.4
20260507014015 10 320 6.4 16.1 0.05 2.13 2.11 96 1004.6
20260507013514 10 315 9.7 16.1 0.05 2.13 2.11 96 1004.8
20260507013047 11 301 6.4 16.1 0.03 2.11 2.08 97 1004.8
20260507012518 11 169 3.2 14.5 0.05 2.11 2.08 98 1004.7
20260507012013 11 185 3.2 14.5 0.03 2.08 2.06 98 1004.7
20260507011535 11 177 6.4 14.5 0.03 2.08 2.06 98 1004.7
20260507011014 11 176 4.8 16.1 0.03 2.08 2.06 98 1004.8
20260507010516 11 177 6.4 16.1 0.03 2.08 2.06 98 1004.7
20260507010055 11 155 4.8 16.1 0.05 2.08 2.06 98 1004.9
20260507005515 11 180 3.2 12.9 0.05 2.21 2.06 98 1004.9
20260507005016 11 199 1.6 8.0 0.05 2.21 2.06 98 1004.9
20260507004550 11 169 0.0 8.0 0.05 2.21 2.06 98 1004.9
20260507004013 11 169 0.0 8.0 0.05 2.21 2.06 98 1004.8
20260507003521 11 166 3.2 11.3 0.05 2.21 2.06 98 1004.9
20260507003049 11 168 6.4 11.3 0.08 2.21 2.06 98 1004.8
20260507002516 11 171 4.8 11.3 0.05 2.16 2.01 98 1004.8
20260507002014 11 149 3.2 11.3 0.08 2.16 2.01 98 1004.7
20260507001606 11 175 6.4 12.9 0.08 2.16 2.01 98 1004.7
20260507001022 11 175 4.8 12.9 0.08 2.16 2.01 98 1004.6
20260507000516 11 174 3.2 8.0 0.08 2.16 2.01 98 1004.6
20260507000058 11 194 1.6 6.4 0.10 2.16 2.01 98 1004.8
20260506235515 11 174 0.0 6.4 0.10 2.44 2.01 98 1004.9
20260506235014 11 149 0.0 6.4 0.10 2.44 2.01 98 1005.0
20260506234548 11 168 1.6 6.4 0.15 2.44 2.01 98 1005.0
20260506234014 11 182 1.6 11.3 0.15 2.44 2.01 98 1005.0
20260506233514 11 185 1.6 11.3 0.23 2.44 2.01 98 1005.1
20260506233038 11 175 4.8 9.7 0.30 2.41 1.98 98 1005.2
20260506232513 11 173 1.6 14.5 0.30 2.41 1.98 98 1005.2
20260506232016 11 91 4.8 14.5 0.30 2.39 1.96 98 1005.3
20260506231544 11 179 4.8 12.9 0.30 2.39 1.96 98 1005.2
20260506231014 11 182 4.8 9.7 0.30 2.39 1.96 98 1005.2
20260506230510 11 167 3.2 8.0 0.28 2.36 1.93 98 1005.2
20260506230026 11 205 1.6 14.5 0.28 2.31 1.91 97 1005.3
20260506225516 11 180 4.8 14.5 0.23 2.41 1.88 97 1005.5
20260506225015 11 157 3.2 14.5 0.28 2.41 1.88 97 1005.3
20260506224531 11 193 4.8 19.3 0.23 2.39 1.83 97 1005.4
20260506224013 12 166 8.0 19.3 0.23 2.36 1.83 97 1005.4
20260506223512 12 182 4.8 11.3 0.20 2.29 1.75 97 1005.6
20260506223038 12 220 1.6 8.0 0.10 2.21 1.68 98 1005.5
20260506222513 12 197 3.2 8.0 0.15 2.21 1.68 98 1005.5
20260506222019 12 168 3.2 6.4 0.15 2.16 1.65 98 1005.6
20260506221547 12 182 1.6 11.3 0.15 2.16 1.65 98 1005.5
20260506221016 12 188 3.2 16.1 0.18 2.16 1.65 98 1005.4
20260506220512 12 191 4.8 16.1 0.20 2.16 1.65 98 1005.4
20260506220059 12 172 4.8 14.5 0.18 2.16 1.63 98 1005.5
20260506215516 12 200 4.8 19.3 0.20 2.16 1.63 98 1005.5
20260506215016 12 152 4.8 19.3 0.20 2.13 1.60 98 1005.2
20260506214546 12 201 6.4 17.7 0.23 2.13 1.60 98 1005.3
20260506214014 12 198 3.2 12.9 0.20 2.11 1.57 98 1005.7
20260506213509 12 188 1.6 16.1 0.23 2.08 1.55 98 1005.7
20260506213030 12 158 3.2 16.1 0.23 2.06 1.50 98 1005.6
20260506212515 12 176 3.2 11.3 0.23 2.01 1.47 98 1005.6
20260506212013 12 155 1.6 8.0 0.28 2.01 1.47 98 1005.6
20260506211547 12 178 4.8 11.3 0.30 2.01 1.47 98 1005.6
20260506211015 12 197 3.2 12.9 0.36 1.98 1.45 98 1005.6
20260506210516 12 205 4.8 11.3 0.41 1.98 1.45 98 1006.0
20260506210100 12 195 3.2 12.9 0.41 1.96 1.42 99 1005.9
20260506205517 12 221 4.8 12.9 0.46 1.96 1.42 98 1005.8
20260506205013 12 206 1.6 6.4 0.46 1.93 1.40 98 1005.7
20260506204550 12 180 1.6 9.7 0.48 1.91 1.35 99 1005.5
20260506204018 12 169 0.0 11.3 0.48 1.88 1.32 99 1005.6
20260506203516 12 171 4.8 11.3 0.48 1.83 1.32 99 1005.9
20260506203121 11 153 3.2 8.0 0.48 1.83 1.30 99 1006.0
20260506202518 11 331 0.0 0.0 0.48 1.80 1.27 98 1005.9
20260506202014 11 331 0.0 0.0 0.48 1.75 1.22 98 1005.9
20260506201552 11 331 0.0 0.0 0.43 1.68 1.14 98 1006.1
20260506201015 11 331 0.0 0.0 0.43 1.63 1.07 98 1006.0
20260506200510 11 331 0.0 0.0 0.41 1.57 1.04 98 1005.8
20260506200052 11 331 0.0 0.0 0.41 1.50 0.99 98 1005.9
20260506195516 11 331 0.0 0.0 0.36 1.47 0.94 98 1006.0
20260506195017 11 331 0.0 0.0 0.36 1.45 0.91 98 1006.1
20260506194552 10 331 0.0 0.0 0.41 1.42 0.89 98 1006.1
20260506194017 10 331 0.0 0.0 0.41 1.40 0.86 98 1006.0
20260506193513 10 331 0.0 0.0 0.41 1.35 0.84 97 1005.9
20260506193048 10 331 0.0 0.0 0.41 1.32 0.81 97 1005.9
20260506192516 10 331 0.0 0.0 0.41 1.32 0.79 97 1005.9
20260506192017 10 331 0.0 0.0 0.36 1.27 0.74 97 1006.0
20260506191559 10 331 0.0 0.0 0.36 1.22 0.66 97 1006.4
20260506191017 11 331 0.0 0.0 0.36 1.19 0.66 97 1006.6
20260506190515 11 331 0.0 0.0 0.33 1.14 0.64 98 1006.6
20260506190100 11 331 0.0 1.6 0.30 1.12 0.56 98 1006.8
20260506185515 11 331 0.0 1.6 0.28 1.07 0.56 97 1006.8
20260506185017 11 331 0.0 3.2 0.28 1.07 0.53 97 1006.8
20260506184601 11 331 1.6 4.8 0.23 0.99 0.48 97 1007.0
20260506184016 11 331 0.0 6.4 0.23 0.99 0.46 97 1006.6
20260506183516 11 331 3.2 6.4 0.20 0.97 0.43 97 1006.8
20260506183049 10 331 1.6 4.8 0.23 0.94 0.41 97 1006.8
20260506182516 10 331 1.6 4.8 0.20 0.91 0.36 97 1006.9
20260506182019 10 331 1.6 4.8 0.23 0.89 0.36 96 1006.7
20260506181556 10 331 1.6 4.8 0.20 0.86 0.33 96 1006.7
20260506181015 10 331 3.2 4.8 0.20 0.84 0.30 96 1006.7
20260506180516 10 331 1.6 6.4 0.20 0.84 0.30 96 1006.9
20260506180031 10 331 3.2 6.4 0.18 0.81 0.28 96 1007.0
20260506175517 10 330 3.2 8.0 0.18 0.81 0.28 96 1007.2
20260506175015 10 334 4.8 8.0 0.15 0.79 0.23 95 1007.3
20260506174604 11 331 6.4 8.0 0.15 0.79 0.23 95 1007.3
20260506174017 11 309 1.6 4.8 0.10 0.74 0.23 96 1007.5
20260506173517 11 309 1.6 4.8 0.10 0.74 0.20 96 1007.7
20260506173058 11 295 1.6 4.8 0.10 0.71 0.18 95 1008.0
20260506172515 11 295 3.2 4.8 0.08 0.66 0.15 95 1008.0
20260506172017 11 295 1.6 4.8 0.05 0.66 0.10 95 1008.0
20260506171529 11 341 1.6 4.8 0.03 0.64 0.10 95 1008.3
20260506171016 11 344 0.0 3.2 0.03 0.64 0.10 95 1008.3
20260506170516 11 344 0.0 9.7 0.03 0.64 0.10 95 1008.4
20260506170050 11 300 6.4 9.7 0.03 0.64 0.10 93 1008.7
20260506165510 11 332 0.0 3.2 0.03 0.64 0.10 95 1008.5
20260506165014 11 332 0.0 0.0 0.03 0.64 0.10 95 1008.3
20260506164557 11 332 0.0 0.0 0.03 0.64 0.10 93 1008.5
20260506164013 11 332 0.0 3.2 0.03 0.64 0.10 91 1008.7
20260506163515 11 332 1.6 3.2 0.00 0.61 0.08 90 1008.6
20260506163104 11 332 0.0 1.6 0.00 0.61 0.08 92 1008.7
20260506162517 11 332 0.0 3.2 0.00 0.61 0.08 91 1008.6
20260506162014 11 332 0.0 3.2 0.00 0.61 0.08 91 1008.7
20260506161557 11 332 0.0 4.8 0.00 0.61 0.08 90 1008.5
20260506161018 11 332 1.6 4.8 0.00 0.61 0.08 89 1009.1
20260506160515 11 332 0.0 4.8 0.00 0.61 0.08 89 1009.0
20260506160051 11 332 1.6 6.4 0.00 0.61 0.08 88 1009.3
20260506155516 11 332 4.8 8.0 0.00 0.61 0.08 88 1009.1
20260506155018 11 314 4.8 8.0 0.00 0.61 0.08 88 1009.1
20260506154558 11 314 3.2 6.4 0.00 0.61 0.08 89 1009.1
20260506154014 11 314 3.2 6.4 0.00 0.61 0.08 89 1009.1
20260506153516 11 295 3.2 4.8 0.00 0.61 0.08 89 1008.9
20260506153112 11 295 0.0 4.8 0.00 0.61 0.08 89 1008.9
20260506152518 11 295 0.0 4.8 0.00 0.61 0.08 88 1008.7
20260506152017 11 201 0.0 0.0 0.00 0.61 0.08 88 1008.7
20260506151558 11 201 0.0 0.0 0.00 0.61 0.08 88 1008.8
20260506151016 11 201 0.0 0.0 0.00 0.61 0.08 88 1008.9
20260506150513 11 201 0.0 4.8 0.00 0.61 0.08 87 1009.0
20260506150058 10 201 0.0 4.8 0.00 0.61 0.08 89 1009.1
20260506145514 10 201 1.6 3.2 0.00 0.61 0.08 90 1009.0
20260506145017 10 201 0.0 1.6 0.00 0.61 0.08 90 1009.1
20260506144551 10 201 0.0 1.6 0.00 0.61 0.08 90 1009.6
20260506144017 10 201 0.0 0.0 0.00 0.61 0.08 90 1009.5
20260506143519 10 201 0.0 0.0 0.00 0.61 0.08 90 1009.7
20260506143059 10 201 0.0 0.0 0.00 0.61 0.08 90 1009.7
20260506142517 11 201 0.0 0.0 0.00 0.61 0.08 91 1009.8
20260506142013 11 197 0.0 0.0 0.00 0.61 0.08 91 1009.9
20260506141554 11 197 0.0 0.0 0.00 0.61 0.08 88 1009.9
20260506141020 11 197 0.0 0.0 0.00 0.61 0.08 89 1009.9
20260506140517 11 197 0.0 0.0 0.00 0.61 0.08 90 1010.0
20260506140053 11 197 0.0 0.0 0.00 0.61 0.08 91 1010.1
20260506135518 11 197 0.0 0.0 0.00 0.61 0.08 89 1010.1
20260506135020 11 197 0.0 0.0 0.00 0.61 0.08 90 1010.1